Zurück zum Katalog

STARLINK-34168

AktivKommunikationVLEO
NORAD 64079·PAYLOAD·🇺🇸 United States

Gestartet May 21, 2025 von Cape Canaveral Space Force Station

Loading…

Nächste Überflüge (nächste 24 Stunden)

TLE

AktuellSource: CelesTrak SupGP

Epoche: Sep 14, 2026, 14:23 UTC

1 64079C 25107R   26257.59979167 -.00024089  00000+0 -87289-3 0  2574
2 64079  43.0015 214.3861 0001317 265.2322 150.5412 15.27576364    15

Verfolge STARLINK-34168 in Echtzeit mit AllMySat

Download on the App Store